User: anonymous   Login
Location: Unspecified
(0.0000°N, 0.0000°E)
Time: 04:58:48
(UTC+00:00)
Language:

Kosmos-2172 - Orbit

View from above orbital plane
View from above orbital plane
View from above satellite
View from above satellite

Ground track
Ground track

The orbit data is extracted from the following two-line orbital elements,

1 21796U 91081A   18343.92930272 +.00000042 +00000-0 +26754-4 0  9991
2 21796 082.9573 043.4703 0050675 093.0469 319.0961 13.75488176356841
Epoch (UTC): 09 December 2018 22:18:11
Eccentricity: 0.0050675
inclination: 82.9573°
perigee height: 942 km
apogee height: 1017 km
right ascension of ascending node: 43.4703°
argument of perigee: 93.0469°
revolutions per day: 13.75488176
mean anomaly at epoch: 319.0961°
orbit number at epoch: 35684

The dashed part of the orbit path shows where the satellite is in the earth's shadow,  

DLR